This demonstration page uses our WeatherBlox Daily Observations layout. Learn more.

Left ArrowRight Arrow

39.29038, -76.61219

Hourly Observations for August 11, 2015

Temp ( °F °C ) Dew Point ( °F °C ) Humidity (%) Winds ( mph kmh ) Pressure ( in mb ) Visibility ( mi km ) Precip ( " mm )
12:54 am 00:54 Mostly Clear 74 23.3 71 21.7 91 91 undefined N/A 29.88 1012 N/A 0.00 0.00
1:54 am 01:54 undefined 71 21.7 70 21.1 96 96 undefined N/A 29.87 1012 N/A 0.08 2.03
2:54 am 02:54 Mostly Cloudy 82 27.7 76 24.4 82 82 undefined N/A 30.95 1048 N/A 0.03 0.76
3:54 am 03:54 Cloudy 74 23.3 51 10.6 45 45 undefined N/A 29.94 1014 N/A 0.00 0.00
4:54 am 04:54 undefined 72 22.2 69 20.6 91 91 undefined N/A 29.80 1009 N/A 0.00 0.00
5:54 am 05:54 Mostly Cloudy 78 25.4 66 19 68 68 undefined N/A 30.01 1016 N/A 0.00 0.00
6:54 am 06:54 undefined 73 22.8 70 21.1 90 90 undefined N/A 29.82 1010 N/A 0.00 0.00
7:54 am 07:54 undefined 73 22.8 71 21.7 94 94 undefined N/A 29.83 1010 N/A 0.00 0.00
8:54 am 08:54 undefined 75 23.9 71 21.7 88 88 undefined N/A 29.81 1009 N/A 0.00 0.00
9:54 am 09:54 undefined 77 25 71 21.7 82 82 undefined N/A 29.80 1009 N/A 0.00 0.00
10:54 am 10:54 Mostly Sunny 80 26.7 70 21.1 71 71 undefined N/A 29.80 1009 N/A 0.00 0.00
11:54 am 11:54 undefined 82 27.8 69 20.6 65 65 undefined N/A 29.80 1009 N/A 0.00 0.00
12:54 pm 12:54 undefined 86 30 68 20 55 55 undefined N/A 29.78 1009 N/A 0.00 0.00
1:54 pm 13:54 Mostly Cloudy 87 30.6 67 19.4 51 51 undefined N/A 29.77 1008 N/A 0.00 0.00
2:54 pm 14:54 undefined 85 29.4 65 18.3 51 51 undefined N/A 29.79 1009 N/A 0.00 0.00
3:54 pm 15:54 undefined 80 26.7 71 21.7 74 74 undefined N/A 29.77 1008 N/A 0.09 2.29
4:54 pm 16:54 Mostly Sunny 85 29.4 68 20 57 57 undefined N/A 29.75 1007 N/A 0.00 0.00
5:54 pm 17:54 undefined 81 27.2 69 20.6 67 67 undefined N/A 29.76 1008 N/A 0.00 0.00
6:54 pm 18:54 undefined 78 25.6 69 20.6 74 74 undefined N/A 29.78 1009 N/A 0.00 0.00
7:54 pm 19:54 undefined 78 25.6 70 21.1 76 76 undefined N/A 29.79 1009 N/A 0.00 0.00
8:54 pm 20:54 Cloudy 78 25.6 69 20.6 74 74 undefined N/A 29.81 1009 N/A 0.00 0.00
9:54 pm 21:54 undefined 78 25.6 70 21.1 76 76 undefined N/A 29.83 1010 N/A 0.00 0.00
10:54 pm 22:54 undefined 78 25.6 70 21.1 76 76 undefined N/A 29.84 1010 N/A 0.00 0.00
11:54 pm 23:54 Mostly Cloudy 77 25 70 21.1 79 79 undefined N/A 29.84 1011 N/A 0.00 0.00

Powered by AerisWeather